User: anonymous   Login
Location: Peebles
(55.6412°N, 3.1714°W)
Time: 08:24:55
(UTC+01:00)
Language:

Cosmos 1371 - Orbit

View from above orbital plane
View from above orbital plane
View from above satellite
View from above satellite

Ground track
Ground track

The orbit data is extracted from the following two-line orbital elements,

1 13241U 82051A   22176.87191028  .00000074  00000-0  37173-4 0  9997
2 13241  74.0439  15.9821 0012372 115.2816 244.9618 14.31803151 91534
Epoch (UTC): 25 June 2022 20:55:33
Eccentricity: 0.0012372
inclination: 74.0439°
perigee height: 777 km
apogee height: 794 km
right ascension of ascending node: 15.9821°
argument of perigee: 115.2816°
revolutions per day: 14.31803151
mean anomaly at epoch: 244.9618°
orbit number at epoch: 9153

The dashed part of the orbit path shows where the satellite is in the earth's shadow,  

DLR